Wind_Speed
14 14 14 14 13 12 12 12 11 11 11 12 12 13 14 14 15 16 17 18 19 20 21 22 23 23 23 24 25 24 24 23 22 22 22 21 22 21 21 20 20 19 19 19 19 18 18 18 19 18 19 20 20 19 18 17 16 15 17 20 20 20 20 21 23 24 24 23 21 21 26 30 30 31 33 34 35 36 36 37 37 37 38 38 39
15 14 14 14 13 12 11 11 11 11 11 12 12 13 14 14 15 16 17 18 19 20 22 22 23 23 24 25 25 25 24 23 23 22 21 21 21 21 20 20 19 19 19 18 18 18 18 18 18 18 18 19 20 20 19 18 17 16 15 17 20 20 19 17 17 19 20 22 22 21 27 33 33 33 33 34 36 37 37 38 38 39 39 40 40
15 14 15 14 13 12 11 11 11 11 11 12 13 13 14 14 15 16 17 18 19 21 22 22 23 24 25 25 25 25 24 23 23 21 20 20 20 20 20 20 19 19 19 19 18 18 17 18 18 18 19 19 19 19 19 19 19 18 17 17 17 16 16 15 14 14 17 21 23 26 29 32 32 33 34 34 37 39 40 39 39 39 40 41 41
15 15 15 14 13 12 11 11 11 11 11 12 12 13 13 14 15 16 17 19 20 21 21 22 24 24 25 25 24 24 23 23 22 21 20 19 19 19 19 19 19 19 19 19 19 18 18 17 18 18 19 20 19 19 19 19 19 19 20 18 18 16 13 14 15 15 16 19 23 27 28 25 24 27 32 36 38 41 42 42 42 40 38 39 40
16 16 15 14 13 11 11 11 10 10 11 12 12 12 13 14 15 16 17 19 20 21 22 22 23 24 24 25 24 24 24 23 22 22 21 20 19 18 18 18 18 19 19 19 19 19 18 18 18 19 19 20 20 19 19 19 19 19 20 19 17 17 16 14 14 14 16 19 21 23 24 23 22 20 24 30 34 38 39 38 39 39 38 38 39
17 16 15 14 13 12 11 11 10 10 11 11 11 12 13 14 15 16 18 19 20 21 21 22 23 24 25 25 25 25 24 23 23 23 23 22 20 19 18 18 18 19 20 20 19 19 19 19 19 20 20 20 20 19 19 19 19 19 19 19 18 18 18 16 14 13 14 16 17 17 18 20 23 24 26 28 29 32 34 33 34 36 38 39 39
17 16 16 15 13 12 11 10 10 10 10 10 11 12 13 14 15 16 17 18 19 20 21 21 22 24 25 25 25 25 24 23 23 23 22 21 21 20 19 19 19 19 20 20 21 20 20 20 20 20 20 20 19 19 19 19 19 19 19 19 18 18 19 18 15 13 13 15 15 14 15 16 18 22 27 32 33 33 34 35 36 37 37 38 39
17 17 16 15 13 11 10 10 10 9 9 10 11 12 13 14 15 16 17 18 19 19 20 21 22 23 24 24 24 23 23 22 21 21 20 20 20 20 19 19 19 19 19 20 20 21 21 20 20 21 21 21 21 20 20 20 20 20 19 19 19 18 19 19 17 15 15 17 16 13 13 14 14 15 17 22 27 28 29 30 32 35 34 34 37
17 17 16 14 12 11 10 10 9 9 9 10 11 12 13 14 15 15 16 17 18 19 19 21 22 23 23 23 22 22 21 20 19 19 19 19 19 19 18 18 19 19 19 18 19 19 20 20 20 21 22 23 23 23 22 22 21 21 20 19 19 20 20 20 20 17 15 15 15 12 9 11 13 13 12 14 17 19 20 20 23 28 29 29 32
17 16 15 13 11 10 10 9 9 8 9 10 11 12 13 14 14 15 15 16 17 18 20 21 22 22 22 21 21 20 19 19 18 18 18 18 18 18 17 17 17 17 17 17 17 17 18 19 19 21 22 23 23 23 23 23 22 22 22 21 20 19 19 20 21 19 15 14 16 13 10 10 12 11 10 11 13 14 16 17 20 23 25 27 30
17 16 15 12 11 11 10 9 8 8 9 10 11 12 13 13 14 14 15 16 17 18 20 20 20 20 20 20 20 19 18 18 17 17 16 16 16 15 15 15 15 15 15 15 15 16 16 17 18 19 20 21 22 22 22 23 22 22 22 22 22 21 20 19 19 20 18 17 18 17 14 13 13 12 11 11 13 13 12 14 18 21 24 26 28
17 15 14 12 11 11 10 9 8 8 9 10 10 11 12 13 13 14 15 16 17 18 19 19 19 19 19 18 18 18 17 17 16 16 15 15 15 14 14 14 14 13 14 14 15 16 16 17 18 18 19 19 20 21 21 22 22 21 21 21 22 22 22 21 19 18 19 18 17 17 16 14 14 15 15 14 15 15 14 13 15 18 21 23 25
16 14 13 12 12 11 10 9 8 8 9 9 10 11 11 12 13 14 15 16 17 17 17 18 17 17 17 17 17 16 16 16 15 15 15 14 15 15 14 15 15 15 15 15 16 16 17 18 18 18 19 19 19 19 20 20 20 20 19 19 20 21 22 22 21 18 17 17 18 18 17 16 15 16 17 16 17 19 20 18 16 17 18 19 21
15 14 13 12 12 11 10 9 8 8 8 9 9 10 11 12 13 14 15 16 16 16 16 16 16 16 16 16 16 16 15 15 15 15 15 15 15 16 16 16 17 17 17 18 18 18 18 19 19 19 19 19 19 19 19 20 20 19 19 19 19 19 19 19 19 18 17 17 18 18 18 18 17 18 20 20 19 19 20 20 19 20 20 19 19
15 13 13 12 11 10 9 8 8 8 8 8 9 9 10 11 12 14 14 15 15 15 15 15 15 15 15 15 15 15 15 14 15 15 15 16 16 17 17 17 17 18 19 19 19 19 18 18 18 19 19 19 19 20 19 20 20 20 20 21 21 20 19 18 17 17 17 18 19 19 19 19 19 19 20 20 21 20 20 20 20 20 20 20 21
14 13 12 11 10 10 9 8 7 7 7 7 8 9 10 11 12 13 13 13 13 14 14 14 14 14 13 13 13 13 13 14 15 16 16 17 18 18 18 18 19 19 19 19 18 18 18 18 18 18 18 18 18 18 19 19 19 19 20 21 21 22 22 21 20 19 18 18 19 19 18 18 18 19 19 20 21 21 21 22 21 21 20 20 20
13 12 11 10 9 9 8 7 7 6 6 6 7 8 10 10 11 11 11 12 13 13 13 13 12 11 11 12 12 13 14 15 16 17 18 19 19 19 20 20 21 21 20 20 20 20 21 21 21 20 19 18 18 18 18 19 19 19 19 19 20 20 21 22 22 21 21 20 20 20 19 19 19 19 19 20 21 22 22 23 23 24 23 22 21
13 11 9 9 9 8 7 7 6 5 5 6 7 8 9 9 10 10 11 12 12 11 10 9 9 10 12 12 14 15 16 16 17 18 19 19 20 20 21 22 22 21 21 22 22 22 22 22 22 21 20 20 20 20 20 20 19 20 20 20 20 20 19 19 19 20 20 20 20 21 21 21 20 21 21 21 22 22 23 23 22 22 24 25 23
12 10 9 9 8 7 6 6 5 5 5 6 7 7 8 8 9 10 10 10 8 7 7 9 10 12 13 14 15 16 16 16 17 18 19 19 20 20 21 21 21 22 22 23 23 22 22 21 21 21 21 22 22 21 20 20 20 20 21 21 20 19 19 19 20 20 21 21 22 22 22 22 22 22 22 22 22 22 22 21 19 19 20 22 22
10 9 9 8 7 7 6 5 5 5 4 5 6 7 7 8 9 8 7 6 5 7 9 11 12 13 14 15 15 15 15 15 17 17 18 18 19 20 20 20 21 22 23 23 22 22 22 21 22 22 23 23 22 22 22 21 21 21 20 19 20 21 22 23 23 23 23 23 23 24 24 23 23 23 23 23 22 22 22 21 21 19 19 18 18
10 10 9 8 7 6 6 5 5 4 4 4 5 6 7 7 6 4 4 5 8 10 12 12 13 13 14 13 13 13 14 15 16 16 17 18 18 19 19 20 21 23 23 22 22 22 22 23 24 24 24 24 24 24 24 24 24 23 22 22 23 24 24 25 25 25 25 25 24 24 24 24 23 23 23 23 22 22 22 22 21 21 20 18 17
11 10 9 8 7 7 6 6 4 3 3 4 5 5 5 3 2 4 7 8 10 12 12 12 12 13 12 12 12 12 13 14 15 16 16 17 18 18 19 20 22 22 22 21 21 22 23 24 25 26 25 25 25 25 25 25 25 25 26 26 26 25 25 25 24 25 25 25 25 24 23 22 22 22 21 21 21 21 21 21 21 20 19 18 18
11 10 9 8 8 7 6 5 4 3 3 4 4 3 0 3 6 8 9 10 11 12 11 11 11 11 10 10 11 11 12 13 14 15 15 16 17 18 18 19 20 20 20 20 21 23 24 25 26 26 26 25 26 26 25 25 25 26 26 26 26 25 24 24 24 25 25 25 25 24 24 24 23 23 22 22 21 20 20 20 19 19 17 15 16
10 10 9 9 8 8 7 5 4 3 3 3 2 2 5 7 9 10 10 10 11 10 10 10 10 9 9 9 9 10 12 13 13 14 15 15 16 17 17 18 19 19 19 19 21 23 24 25 26 26 26 26 26 26 25 25 25 26 26 25 25 24 24 25 26 27 26 26 27 27 28 28 28 28 27 27 26 25 23 22 20 19 17 15 13
10 10 10 10 9 8 7 5 4 3 3 3 4 7 9 10 11 10 10 9 9 9 8 8 8 8 8 8 9 10 11 13 13 13 14 14 15 16 17 17 18 19 19 19 21 23 24 25 26 25 25 26 25 25 25 25 25 25 25 24 25 25 26 27 28 28 28 29 30 31 31 32 32 32 31 29 27 25 24 22 21 20 18 16 13
11 11 11 10 9 8 7 5 4 4 4 6 8 10 11 11 11 10 8 8 8 7 6 6 7 7 7 8 9 11 12 13 13 13 13 14 15 16 16 17 18 18 19 19 21 23 24 24 24 24 24 25 24 24 25 25 25 24 24 25 26 27 28 28 29 29 30 30 31 32 33 33 32 32 31 30 28 27 25 25 24 22 20 18 15
13 12 12 11 9 8 6 5 5 6 8 10 11 12 12 11 10 9 7 6 6 4 5 5 6 7 7 8 10 11 12 12 12 12 12 13 14 15 16 16 17 17 18 19 21 23 24 24 24 24 24 24 24 24 24 24 24 24 25 26 27 28 29 29 29 29 30 30 31 31 31 30 30 31 31 31 30 29 28 28 27 26 24 22 19
14 13 12 11 9 8 6 7 8 10 11 12 13 12 11 10 9 8 6 5 3 3 4 5 6 7 7 9 10 11 11 11 11 11 11 12 13 14 14 15 16 17 17 19 21 23 23 23 23 22 22 22 22 22 22 23 24 24 26 26 27 27 27 26 26 27 28 29 29 28 28 28 29 30 30 30 29 29 29 28 28 28 27 25 21
14 13 12 11 9 8 8 9 12 13 14 14 13 12 10 8 7 6 4 3 2 3 4 6 6 7 8 9 10 10 10 10 10 10 11 12 12 13 13 14 15 17 18 20 22 22 21 20 20 20 20 21 21 21 22 23 23 24 24 25 25 25 25 25 25 27 28 27 27 27 28 28 28 29 29 29 28 26 25 26 26 27 26 25 23
14 13 12 10 9 9 11 12 14 15 15 15 14 12 9 7 6 4 3 2 3 4 5 6 7 7 8 9 9 9 9 9 10 11 11 12 12 13 14 15 16 18 18 20 20 19 18 18 18 19 19 20 20 21 22 22 23 23 23 24 24 24 24 25 26 27 27 27 27 27 27 27 27 28 28 28 27 24 22 22 23 24 24 26 27
14 12 11 10 10 12 14 15 15 15 15 14 13 11 9 7 5 3 2 2 3 4 5 6 6 7 7 7 8 8 9 9 10 11 12 12 13 14 14 15 17 18 18 18 18 17 16 17 18 18 19 19 20 21 22 22 22 23 23 23 23 23 24 25 26 27 26 26 26 26 26 26 26 27 27 27 26 23 21 20 20 20 21 24 26
14 12 10 11 12 15 16 16 16 15 14 13 11 10 8 6 4 3 2 2 3 4 4 5 5 6 7 7 7 8 9 9 10 11 12 12 13 14 14 15 17 17 17 18 17 16 16 17 18 18 19 19 20 20 21 22 22 22 22 22 23 23 24 25 26 26 25 25 25 26 26 26 25 25 25 25 25 23 21 19 18 17 18 21 22
13 12 12 13 15 17 17 17 16 15 13 11 9 8 7 5 4 2 2 2 2 3 3 4 5 6 7 7 8 8 9 10 10 11 11 12 13 14 14 16 17 17 17 17 16 16 17 17 18 18 19 19 20 21 21 22 22 22 22 23 23 24 25 25 25 24 24 25 25 25 25 24 24 24 24 24 24 23 22 20 18 17 17 18 19
13 13 15 16 17 18 18 17 16 14 12 10 8 7 6 4 3 2 1 1 1 2 3 4 5 6 7 8 8 8 9 9 10 11 11 12 13 13 14 16 17 17 16 16 16 17 17 18 18 18 19 19 20 20 21 21 22 22 23 23 24 24 24 24 24 24 24 25 25 24 24 24 23 22 22 23 23 22 22 21 20 18 17 16 15
13 15 18 19 19 19 18 17 15 13 11 9 7 6 5 4 3 2 1 1 1 2 3 4 4 5 6 7 8 8 9 9 10 10 11 12 13 14 15 16 16 16 16 16 17 17 18 18 19 19 19 20 20 20 21 21 21 22 22 23 23 23 23 23 23 23 24 24 24 24 23 23 22 22 22 22 21 21 21 21 21 20 18 16 14
14 17 20 21 20 19 18 16 14 12 10 8 7 5 4 4 3 2 2 1 1 2 3 3 4 5 5 6 6 7 8 9 10 10 11 12 13 15 15 15 15 15 16 16 17 18 18 19 19 19 19 20 20 20 20 20 21 21 22 22 23 23 23 23 23 23 23 23 23 23 23 22 22 22 21 21 21 21 20 20 20 20 19 17 15
16 19 20 21 20 19 17 15 13 11 9 8 6 5 4 4 3 2 2 2 2 2 2 3 3 4 4 5 5 6 7 8 9 10 11 12 13 14 14 14 14 15 16 16 17 18 18 18 19 19 19 20 20 20 20 20 20 21 21 22 22 23 23 23 23 23 23 23 22 22 22 22 22 21 21 20 20 20 20 20 19 18 18 17 15
19 21 21 21 20 18 16 14 12 10 9 7 6 5 5 4 4 3 2 1 1 1 2 2 3 3 4 4 5 6 7 8 9 10 10 11 12 13 13 14 14 15 15 16 17 18 18 18 18 19 19 19 19 19 20 20 20 21 21 22 22 23 23 23 23 23 22 22 22 22 22 22 22 21 21 20 20 20 20 20 19 18 17 16 15
21 22 22 21 20 18 16 14 12 10 9 8 7 6 5 5 4 3 2 2 1 1 1 2 2 2 3 3 4 5 6 6 7 9 10 11 11 12 12 13 13 14 15 16 16 17 17 18 18 18 18 18 18 18 19 19 20 20 21 21 21 21 21 22 22 22 22 22 22 22 22 22 21 21 21 20 20 20 20 19 19 18 17 16 15
22 23 22 21 19 17 15 13 12 11 10 9 8 7 6 5 4 3 2 2 1 0 1 2 2 2 3 3 3 4 5 5 6 7 9 9 10 11 11 12 13 13 14 15 15 16 16 17 17 17 18 18 18 18 18 19 19 20 20 20 20 20 21 21 21 22 22 22 22 22 22 22 21 21 20 20 19 19 19 19 18 18 17 16 15
23 23 22 20 18 16 15 13 12 12 11 10 9 7 6 5 4 3 2 1 0 1 1 2 3 3 3 4 4 4 4 5 6 7 8 9 9 10 11 11 12 12 13 13 14 15 15 16 16 16 17 17 17 17 17 18 18 19 19 19 20 20 20 20 21 21 22 22 22 21 21 21 21 20 20 19 19 18 18 18 17 17 16 15 14
24 23 21 19 18 16 15 14 13 12 11 10 9 8 6 5 4 3 2 2 2 2 2 3 3 4 4 4 4 4 4 5 6 7 8 8 9 10 10 11 11 11 12 12 13 13 14 15 15 15 16 16 16 16 16 16 17 17 17 18 19 19 19 20 20 21 21 21 21 21 21 21 20 20 20 19 19 18 18 17 17 16 16 15 14
24 23 21 20 19 17 16 15 14 12 11 10 9 8 7 6 4 4 3 3 3 3 3 3 4 4 4 4 4 5 5 6 6 7 8 8 9 9 10 10 10 11 11 12 12 12 13 13 14 14 14 14 15 15 15 15 15 15 16 17 17 18 18 19 19 20 20 21 21 21 21 21 20 20 20 19 19 18 18 17 16 16 15 15 14
24 23 22 21 20 18 16 15 14 13 12 11 10 8 7 6 6 5 4 4 4 4 4 5 5 5 5 5 5 6 6 7 7 7 8 9 9 10 10 10 10 10 11 11 12 12 12 12 12 13 13 13 13 13 13 14 14 14 14 15 16 16 17 17 18 18 19 19 20 20 21 21 20 20 20 19 19 18 18 17 16 16 15 15 14
24 23 22 21 20 18 17 16 15 14 13 12 10 10 9 8 7 6 6 6 6 6 6 6 6 6 6 7 7 7 8 8 8 8 9 9 10 10 11 11 11 11 11 11 11 12 12 12 12 12 12 12 12 12 12 12 12 13 13 14 14 14 15 16 16 17 18 18 19 19 20 20 20 20 20 19 19 18 18 17 17 16 16 15 15
24 23 22 21 20 18 17 16 15 15 14 13 12 11 10 10 9 8 8 8 8 7 8 8 8 8 8 8 8 9 9 9 9 10 10 10 11 11 12 12 12 12 12 12 11 12 12 12 12 12 11 12 12 12 11 11 11 11 12 13 13 13 14 14 15 16 16 17 18 18 19 19 19 19 19 19 19 19 18 17 17 17 16 16 15
24 23 22 21 20 19 19 17 16 15 14 13 13 13 12 12 11 11 10 10 10 10 10 9 9 9 10 10 10 10 10 11 11 11 11 12 12 13 13 14 14 14 14 13 13 13 12 12 12 12 12 12 12 11 11 11 11 11 11 12 12 13 14 14 15 15 16 16 17 17 18 18 19 19 19 19 19 19 19 18 18 17 17 16 16
24 23 23 22 21 20 19 18 17 16 15 14 14 14 14 14 13 13 13 13 13 12 12 11 11 11 11 12 12 12 12 12 13 13 14 14 14 14 15 15 16 16 16 15 15 14 14 13 13 13 13 13 12 12 12 11 11 11 11 11 12 13 13 14 14 15 15 16 17 17 18 18 18 18 19 19 19 19 19 19 19 18 17 17 16
24 24 23 23 21 20 19 18 17 16 16 16 16 16 16 16 15 15 15 15 14 14 14 13 13 13 14 14 14 14 14 14 15 16 16 16 16 16 16 17 17 17 17 17 17 16 16 15 15 14 14 14 14 13 13 12 12 12 12 12 12 12 13 14 14 15 15 16 17 17 18 18 18 19 19 18 19 19 19 19 19 19 18 18 17
25 25 24 23 21 20 20 19 18 17 17 17 17 17 17 17 17 17 16 16 16 16 16 15 15 16 16 16 17 17 17 17 17 18 18 18 18 18 18 18 19 19 18 18 18 18 18 18 17 16 16 15 15 15 14 14 14 14 13 13 13 13 14 14 14 15 16 16 17 17 17 18 18 18 19 19 19 18 18 19 19 19 19 19 18
25 25 24 22 21 21 20 19 18 17 17 17 17 18 18 18 18 18 18 18 19 19 18 18 19 19 19 20 20 20 20 20 20 20 20 20 20 20 20 20 20 20 20 20 20 19 19 19 19 19 18 17 17 17 17 16 16 15 15 15 15 15 15 15 15 16 16 17 17 17 18 18 19 19 19 19 19 19 19 19 19 19 19 19 19
Wind_Direction
247 247 247 245 247 254 264 273 280 286 292 300 304 306 309 312 317 322 323 325 329 333 336 339 342 344 344 344 346 347 348 347 346 347 347 347 346 346 346 345 343 341 340 342 345 347 349 352 354 355 354 353 354 352 348 346 338 320 302 289 283 285 286 280 272 270 272 267 259 247 238 237 240 240 240 241 239 237 236 234 234 234 232 230 230
246 246 243 242 246 254 264 271 278 284 290 297 302 305 311 316 320 324 325 328 331 334 336 338 340 342 342 343 345 346 346 346 346 345 344 343 342 343 343 342 340 338 337 337 339 342 346 349 350 352 352 354 356 355 353 352 351 346 332 311 297 289 284 284 279 271 272 272 264 257 249 244 244 245 246 245 241 236 236 236 235 236 234 231 231
243 241 238 240 245 252 262 270 275 282 289 296 302 308 315 320 323 326 327 330 331 333 335 336 338 340 342 343 344 345 344 344 344 343 340 339 341 342 341 338 336 335 334 334 336 339 342 344 347 348 349 351 353 353 353 353 353 354 351 344 334 313 283 277 287 277 272 273 270 271 265 252 248 252 251 247 242 235 233 236 238 239 238 236 233
239 235 232 237 243 251 261 266 272 279 288 297 304 312 318 322 325 327 328 329 330 331 333 334 337 340 341 342 342 342 342 342 343 343 341 341 342 342 340 338 337 338 337 336 336 337 338 339 341 344 346 348 349 348 348 350 352 352 353 352 351 345 318 294 290 278 270 269 271 281 280 260 246 251 246 237 236 237 235 237 240 239 240 240 236
234 229 230 237 242 250 257 261 269 278 289 298 306 315 320 323 326 327 328 328 328 329 331 333 336 338 339 339 340 341 343 343 344 345 346 346 346 345 344 344 345 346 346 344 341 339 339 339 340 341 343 344 344 345 345 346 347 347 350 352 350 349 344 329 309 288 278 276 278 287 285 259 240 245 243 233 236 243 244 243 242 238 238 241 238
228 225 229 236 241 248 253 258 268 279 289 299 308 315 319 322 325 325 325 326 326 328 329 331 334 335 336 337 339 342 344 345 346 348 348 347 347 349 350 350 351 352 352 351 348 345 342 340 341 341 341 340 340 343 345 345 345 342 341 346 347 346 345 343 332 312 298 295 294 297 293 267 246 242 242 238 240 245 246 246 244 240 241 243 240
224 225 230 235 240 245 250 257 268 279 290 300 308 314 318 321 322 322 323 323 324 326 328 331 333 334 336 337 339 342 343 345 347 348 346 345 346 350 352 352 354 355 354 353 351 349 346 343 342 340 339 339 340 344 347 346 345 343 338 338 340 341 341 340 339 331 318 315 312 305 302 292 270 255 249 247 247 245 242 245 245 243 245 244 241
221 224 229 234 238 243 248 258 269 279 289 298 306 314 317 319 318 319 320 321 323 326 327 330 332 333 335 337 339 341 345 348 348 346 345 345 348 350 352 352 353 353 353 352 350 349 348 345 343 342 342 343 343 344 346 347 345 342 339 337 338 339 337 333 334 338 335 328 321 310 310 312 299 283 272 264 259 250 246 252 252 247 247 246 241
219 223 228 233 236 240 248 258 267 276 287 298 308 314 316 317 317 318 320 322 324 325 327 330 332 333 335 337 340 343 347 348 347 347 348 350 352 353 354 354 352 352 352 352 350 348 347 345 344 343 343 343 343 341 340 341 342 342 340 340 339 340 339 333 328 333 340 337 329 322 321 318 306 295 288 277 265 258 259 262 256 248 246 242 238
216 222 227 230 232 237 246 254 262 274 287 298 308 313 315 317 318 319 321 323 325 326 329 331 332 334 336 338 341 344 347 347 347 350 353 354 354 354 355 355 353 353 354 354 353 350 349 348 345 343 341 338 337 336 336 336 338 339 340 340 339 339 339 337 331 326 323 319 321 319 305 298 302 301 297 280 264 268 273 263 252 248 244 237 234
215 220 224 226 230 236 243 250 259 273 286 298 307 312 316 318 319 321 323 324 326 328 330 331 332 335 337 339 343 346 347 348 350 354 355 355 355 354 353 353 351 351 352 351 352 351 350 350 347 343 340 337 335 334 333 334 335 337 336 336 336 337 335 336 335 331 322 311 309 310 301 295 293 286 285 276 260 264 274 263 255 254 247 240 237
214 217 220 224 229 235 240 247 258 272 284 298 307 312 317 319 320 323 323 325 327 328 329 331 333 335 338 341 346 347 347 349 352 353 352 352 352 351 349 348 346 346 347 347 347 347 346 345 344 342 340 338 338 335 331 330 330 333 336 335 335 335 334 334 333 332 332 324 314 307 301 302 301 291 284 275 260 260 270 274 268 261 254 249 243
211 213 217 223 229 234 239 246 257 272 286 300 309 312 317 319 321 323 324 326 327 328 330 332 334 337 341 343 344 344 345 348 349 349 349 349 349 347 346 345 344 344 344 343 343 342 342 341 339 339 339 338 337 335 332 329 326 325 328 330 331 332 334 336 335 331 328 325 322 317 309 303 302 300 296 287 275 271 272 276 274 266 263 256 243
206 209 216 223 228 232 239 247 259 276 290 302 309 313 317 319 322 324 324 325 327 329 332 334 336 339 341 340 340 342 345 347 348 350 352 352 351 351 351 350 348 347 346 345 345 343 341 340 338 336 336 336 335 335 334 332 328 324 322 320 319 320 322 327 330 328 321 317 319 324 321 315 310 307 303 297 289 283 279 278 273 268 267 259 245
203 208 215 221 227 233 240 250 263 280 292 301 309 313 317 319 321 322 323 326 329 331 333 335 337 338 337 338 343 347 351 354 358 2 5 5 7 7 6 3 2 0 358 356 354 351 349 347 344 341 339 337 336 335 336 336 334 331 327 323 320 318 315 314 315 315 315 314 317 319 319 318 316 313 310 303 296 289 285 283 278 272 269 263 255
202 209 214 220 228 235 242 251 265 280 291 300 308 311 314 317 319 322 326 329 330 331 333 336 338 339 342 351 359 5 10 17 21 23 24 24 25 23 21 21 20 17 13 10 8 7 6 4 1 359 354 348 343 340 339 338 338 336 333 330 328 325 323 322 321 319 317 314 315 317 316 314 313 311 310 306 301 297 290 286 283 277 272 268 264
203 208 213 220 228 233 241 253 266 277 287 296 303 307 312 316 320 324 327 327 328 332 337 341 346 357 10 19 27 33 36 36 36 35 34 33 31 29 28 27 26 24 21 20 19 18 16 14 13 11 7 4 1 358 352 348 344 342 338 336 336 334 331 330 328 326 324 321 319 318 317 315 311 307 304 301 299 298 295 291 287 280 274 270 266
206 209 213 219 224 230 240 252 261 269 280 291 299 306 311 316 321 324 325 328 334 342 350 2 20 34 43 47 49 48 45 41 39 37 34 32 30 28 28 27 26 24 23 23 23 21 19 17 15 13 12 13 12 9 5 0 355 351 349 348 345 341 337 335 334 332 330 328 326 323 319 316 312 306 303 299 296 296 296 295 293 285 276 270 267
208 210 213 216 220 228 236 245 251 259 274 289 299 306 311 316 320 323 329 338 350 7 29 47 57 60 60 57 53 49 44 40 37 34 33 31 29 28 28 27 25 24 25 25 25 23 21 19 18 16 16 16 14 11 9 6 2 360 357 352 347 345 345 345 343 340 336 332 329 325 320 316 313 310 307 303 300 298 295 294 296 296 285 270 261
209 210 213 214 216 221 224 231 240 252 271 287 297 304 309 315 321 329 345 8 37 63 72 72 70 67 60 55 51 46 42 38 36 34 32 31 30 29 28 27 25 26 27 27 26 25 25 23 22 22 21 19 16 14 12 11 9 6 0 355 353 355 356 353 349 346 343 340 337 334 331 326 322 319 314 310 307 304 300 295 291 295 295 283 264
207 209 211 209 207 209 214 223 233 246 268 283 293 302 309 317 330 360 43 74 87 87 82 76 69 63 57 53 49 44 40 38 35 33 32 30 30 29 27 26 26 27 27 26 25 26 26 26 26 25 24 21 19 17 16 14 12 9 7 8 8 5 1 357 353 350 348 346 345 343 340 336 332 328 322 317 313 310 309 306 299 293 290 287 282
207 206 202 198 197 202 209 217 223 232 257 277 291 301 311 331 42 84 96 101 96 88 80 72 66 61 56 52 47 42 40 38 35 33 32 30 28 27 26 26 26 26 25 23 24 25 25 26 26 26 25 23 21 20 19 17 14 14 15 15 13 10 6 2 358 355 354 353 351 349 347 344 341 338 334 328 322 315 311 311 310 306 297 286 282
204 198 192 190 194 199 204 206 205 220 251 275 288 294 319 106 110 111 110 104 94 85 77 69 63 58 53 47 44 41 39 37 34 32 31 29 27 26 26 26 26 25 22 21 23 26 26 26 26 26 25 24 23 23 21 19 18 19 19 18 16 14 12 9 7 6 3 1 358 356 357 357 355 353 350 344 339 333 326 320 317 316 312 300 285
195 189 185 188 192 193 194 194 196 220 254 265 249 161 132 127 122 117 111 101 91 83 74 65 59 54 47 41 38 38 38 35 31 29 27 27 25 24 24 24 24 23 21 20 24 26 26 26 26 25 24 24 24 23 22 21 22 22 21 20 19 18 17 17 16 14 12 10 9 8 8 7 7 6 5 0 355 349 345 340 335 329 324 318 303
186 184 184 186 188 186 185 187 203 227 236 207 163 145 136 132 126 118 110 99 89 81 70 60 54 46 39 33 32 33 33 31 26 23 24 24 23 23 22 22 22 21 19 19 23 26 26 25 25 23 23 23 23 23 22 23 23 23 22 22 22 22 22 22 21 18 17 18 19 18 16 15 14 12 12 10 5 359 355 354 354 349 342 335 325
186 186 185 183 181 179 181 190 211 213 187 164 152 143 138 134 128 119 110 98 87 76 66 57 48 38 31 27 27 28 28 25 20 18 19 20 20 21 19 18 19 19 17 20 24 26 24 23 22 21 21 21 21 21 22 23 23 23 23 24 24 24 24 24 22 21 22 23 23 23 22 20 18 16 15 13 10 7 6 7 7 4 2 358 350
188 186 182 179 178 179 185 195 195 178 163 156 149 143 140 137 129 119 108 95 83 73 64 53 42 33 26 24 25 24 22 18 14 13 16 18 19 18 17 16 18 18 17 21 26 25 21 19 19 18 18 19 19 19 21 23 23 22 23 24 25 24 24 23 21 22 23 25 25 25 24 22 21 19 18 16 15 14 15 16 15 15 16 14 8
184 181 179 179 180 183 189 189 177 163 156 153 148 143 143 141 129 117 105 91 77 61 53 45 35 28 24 24 22 19 15 11 8 9 14 17 19 18 15 16 18 18 17 22 25 23 20 18 16 15 16 17 17 18 20 22 22 22 23 25 25 24 24 23 22 23 25 25 25 25 24 23 22 22 22 20 19 19 19 19 19 21 22 20 18
181 179 179 180 182 185 185 177 167 160 155 152 146 143 144 139 127 117 107 90 64 42 37 31 24 21 22 21 17 11 7 5 5 9 15 17 18 17 15 17 20 20 20 24 25 22 17 15 14 13 15 16 16 17 19 21 22 23 24 25 25 24 24 24 24 26 26 25 24 25 24 24 23 24 25 25 24 22 20 18 20 24 27 27 29
182 181 181 183 182 179 174 168 164 160 156 152 147 144 142 136 126 118 105 75 44 30 24 19 16 16 18 17 11 6 5 4 6 11 15 15 17 17 16 19 23 22 22 25 24 18 12 12 12 12 14 15 16 17 19 21 22 23 24 24 24 23 23 24 24 25 24 23 23 24 24 24 25 25 25 27 28 26 22 18 21 28 34 37 38
183 184 183 182 178 172 167 164 162 160 158 154 150 145 140 133 126 114 88 51 29 20 15 11 11 14 16 15 11 8 7 8 10 13 14 14 17 17 17 22 25 24 23 24 21 13 9 11 11 12 14 15 16 18 20 21 21 22 23 23 23 23 23 24 25 24 22 22 23 23 23 24 25 25 26 26 28 28 25 22 23 30 38 43 45
182 185 183 178 174 169 165 162 160 159 158 156 152 148 141 134 125 106 69 35 20 12 8 10 13 18 20 18 15 14 14 13 15 16 15 16 18 17 19 23 25 23 22 22 16 11 10 11 11 12 14 15 16 19 20 20 21 23 23 23 23 23 23 24 24 23 21 21 22 23 23 23 24 24 25 26 27 27 25 23 25 31 35 38 42
182 183 179 174 171 168 165 162 161 160 158 155 153 149 144 139 129 107 68 30 14 8 8 14 17 18 20 19 17 17 17 17 18 18 17 19 20 18 20 24 25 22 21 19 14 11 12 13 12 13 14 16 18 19 20 20 21 22 22 23 24 24 24 24 23 22 21 22 22 22 23 24 24 23 24 24 25 26 24 22 23 24 24 26 33
186 181 174 170 169 168 166 163 162 161 159 157 154 151 149 143 131 119 98 37 23 20 18 19 19 17 17 16 15 15 16 18 20 20 20 22 22 20 23 26 24 22 20 17 14 13 14 14 14 15 15 17 19 20 21 21 21 21 22 24 25 25 25 24 23 22 22 23 23 22 23 23 24 24 25 24 23 23 23 23 22 21 20 23 29
191 182 173 168 167 167 166 165 163 162 161 159 157 156 154 147 141 144 155 148 59 36 28 22 18 17 15 12 10 12 14 17 18 20 22 23 23 23 25 26 23 20 18 17 15 15 16 16 15 16 16 17 19 20 21 22 21 21 22 23 25 26 25 24 24 23 23 23 23 23 23 23 23 24 25 25 24 23 22 21 20 20 21 24 29
187 181 173 168 167 167 167 167 166 164 162 161 159 159 157 153 157 167 161 124 73 46 34 24 17 16 14 10 8 9 12 14 16 18 22 24 24 25 25 24 21 18 18 17 17 17 18 17 16 16 17 17 19 20 20 21 22 22 22 22 23 25 25 25 25 25 24 24 24 24 24 24 23 23 23 23 24 24 23 22 20 19 18 20 24
181 177 172 169 168 169 167 167 166 163 162 161 160 162 165 165 168 171 151 111 75 57 43 29 22 17 11 7 8 9 11 12 13 15 19 23 25 25 24 22 20 18 18 18 18 19 19 18 17 17 17 18 19 20 20 21 21 22 22 22 21 22 22 23 24 25 25 25 25 25 25 25 24 24 23 24 23 23 23 23 23 21 20 19 20
180 175 171 169 170 170 168 167 165 163 163 164 166 171 174 172 169 162 146 121 92 72 53 34 25 18 9 8 10 10 10 11 11 13 17 20 23 23 22 20 19 18 17 17 18 19 19 18 17 17 18 18 19 20 20 21 22 23 23 23 22 21 21 21 22 23 24 25 25 25 26 26 25 25 25 25 25 24 23 23 23 22 21 20 19
180 176 172 171 171 171 170 167 166 166 168 170 174 178 177 171 168 162 155 149 133 92 53 31 19 10 6 8 9 9 10 10 10 11 14 17 18 19 18 18 18 17 16 15 16 17 18 18 17 17 18 19 20 21 21 21 22 24 24 24 23 22 21 20 21 21 22 23 24 24 25 25 24 24 25 25 25 25 25 24 23 22 19 18 17
181 178 175 173 173 173 172 170 170 172 173 175 178 180 178 173 170 169 169 166 153 60 14 6 359 353 353 358 4 6 5 5 8 11 12 12 13 12 12 13 15 15 14 13 13 14 15 15 15 16 16 17 19 20 21 22 22 23 24 25 25 24 23 22 21 20 20 21 22 22 23 23 22 22 22 22 22 24 25 25 24 23 20 18 16
180 178 176 174 175 176 175 174 175 177 177 178 180 180 179 177 177 181 188 200 246 324 336 340 338 336 339 344 349 354 356 358 3 6 6 5 5 4 5 7 10 10 10 10 9 10 11 11 12 13 13 14 16 18 19 21 22 22 23 23 24 25 25 24 23 22 21 21 20 20 20 20 20 19 19 18 17 18 19 21 22 22 21 18 16
180 178 177 177 179 180 178 178 181 183 183 184 185 185 184 184 187 197 218 247 277 300 318 325 324 322 325 331 337 342 347 351 354 357 356 356 356 356 356 358 1 2 3 4 4 5 6 7 7 8 9 10 12 14 16 19 20 21 21 21 22 23 24 24 24 24 23 21 21 20 19 18 17 16 16 15 14 13 12 13 14 15 16 15 13
181 180 179 180 183 184 183 183 184 186 189 191 193 193 193 194 202 215 234 258 278 291 302 308 310 311 314 320 327 332 336 339 342 344 344 344 344 345 345 347 350 352 354 356 358 358 360 1 2 2 3 4 6 8 11 14 17 18 19 19 19 20 21 22 22 22 23 22 21 20 19 18 16 15 13 12 11 9 8 6 6 6 7 8 8
184 182 183 184 186 186 186 187 188 190 194 197 199 201 203 207 215 225 239 257 272 283 292 297 301 305 309 314 317 320 323 326 328 330 331 332 332 333 332 333 337 341 344 346 349 350 351 353 355 355 355 356 359 1 4 6 10 12 14 16 16 16 17 18 18 19 19 20 19 19 18 17 16 15 12 11 9 7 5 4 1 359 358 358 360
187 186 187 188 188 188 188 191 194 196 199 201 203 206 209 213 220 229 240 251 262 272 280 287 293 299 302 304 306 307 309 312 315 316 318 319 320 320 321 322 324 327 331 335 338 339 340 343 345 347 347 348 349 352 355 358 1 5 7 9 10 11 11 12 12 13 14 14 14 15 15 14 14 14 13 11 8 6 3 2 0 358 355 352 351
190 191 191 191 190 190 191 195 199 202 204 206 208 210 214 218 224 231 239 246 253 261 268 275 282 288 292 294 296 297 299 301 303 305 306 308 309 310 311 312 314 316 319 323 326 328 330 332 334 335 337 337 339 341 344 347 350 355 357 359 1 3 4 5 6 7 8 8 8 8 8 7 8 8 8 8 7 5 3 1 359 357 354 351 347
193 194 194 193 193 193 195 198 202 207 210 212 213 215 219 223 228 234 239 244 249 254 260 266 272 277 281 285 287 290 293 295 296 297 298 299 301 303 304 305 307 309 311 313 315 317 319 321 323 324 325 326 327 329 331 334 337 342 345 348 351 353 355 357 359 0 1 2 2 2 1 1 0 0 1 1 1 1 1 360 358 355 353 350 347
197 197 197 196 196 197 198 201 206 211 214 216 217 220 224 229 235 239 242 246 250 254 259 263 268 271 275 278 282 285 289 290 291 292 292 293 295 297 299 300 302 303 304 306 307 309 310 312 313 314 315 316 317 317 318 320 324 328 332 337 341 344 347 350 351 353 355 356 356 356 356 355 354 354 354 353 353 353 354 354 354 354 352 349 345
200 200 200 200 200 202 203 206 210 214 218 220 223 226 231 236 240 244 247 250 254 257 260 264 267 269 272 276 278 281 284 285 286 287 287 289 290 292 293 295 296 297 299 301 302 303 305 305 306 306 307 307 307 307 307 308 310 314 319 324 330 333 337 339 341 344 346 347 348 349 349 349 348 348 347 347 346 346 346 346 346 347 347 346 344
203 203 203 202 203 205 208 211 214 218 222 225 229 233 237 240 244 247 250 254 257 259 262 264 267 269 271 273 276 278 279 279 280 281 283 284 286 288 289 290 292 293 295 297 298 300 301 301 300 300 301 301 300 300 299 299 300 302 307 312 317 321 325 328 330 333 335 337 339 341 342 343 343 342 342 342 341 341 340 340 339 339 339 340 339
205 206 206 205 206 208 211 215 219 222 226 230 233 237 241 244 247 250 253 255 257 259 261 264 266 268 269 271 272 274 275 275 276 277 279 281 283 284 286 287 288 289 291 292 294 295 297 297 298 298 297 296 296 295 293 292 292 294 297 302 307 311 315 318 321 324 326 329 332 335 336 337 337 336 336 336 335 335 335 334 334 333 333 332 331
Height
3154 3154 3154 3154 3154 3154 3154 3154 3154 3153 3153 3153 3152 3152 3151 3150 3149 3148 3146 3145 3144 3143 3141 3140 3138 3137 3135 3134 3132 3130 3128 3127 3125 3123 3121 3119 3117 3115 3113 3112 3110 3108 3106 3104 3102 3100 3098 3095 3093 3091 3089 3087 3085 3083 3081 3079 3078 3076 3075 3074 3074 3073 3072 3071 3071 3071 3072 3072 3073 3074 3076 3077 3077 3078 3079 3080 3081 3083 3084 3086 3088 3089 3091 3093 3095
3151 3152 3152 3152 3152 3153 3152 3152 3152 3152 3152 3151 3151 3150 3149 3148 3147 3146 3145 3143 3142 3141 3140 3138 3137 3135 3134 3132 3130 3128 3127 3125 3123 3121 3120 3118 3117 3115 3113 3111 3109 3107 3105 3103 3101 3099 3097 3095 3093 3091 3089 3087 3085 3083 3081 3079 3077 3076 3074 3073 3072 3071 3070 3069 3068 3069 3069 3069 3070 3071 3072 3073 3073 3074 3075 3076 3078 3079 3080 3082 3083 3085 3086 3088 3090
3149 3150 3150 3151 3151 3151 3151 3151 3151 3151 3151 3150 3149 3148 3147 3146 3145 3144 3143 3142 3141 3140 3138 3137 3135 3134 3132 3130 3129 3127 3125 3124 3122 3120 3119 3117 3116 3114 3112 3110 3108 3106 3104 3102 3100 3098 3096 3094 3093 3091 3088 3086 3084 3082 3081 3079 3077 3075 3074 3072 3070 3068 3068 3067 3066 3067 3067 3067 3067 3068 3067 3068 3069 3071 3071 3072 3073 3075 3076 3077 3079 3080 3081 3083 3084
3147 3148 3148 3149 3149 3149 3149 3149 3150 3149 3149 3148 3148 3147 3146 3145 3144 3142 3141 3140 3139 3138 3137 3136 3134 3132 3131 3129 3127 3126 3124 3122 3121 3119 3118 3116 3114 3112 3111 3109 3107 3105 3103 3101 3099 3097 3095 3093 3092 3090 3088 3086 3084 3082 3080 3078 3077 3075 3073 3071 3069 3068 3067 3066 3065 3065 3065 3065 3064 3064 3063 3063 3065 3066 3066 3066 3068 3069 3071 3073 3074 3075 3077 3078 3079
3145 3146 3147 3147 3147 3147 3148 3148 3148 3148 3147 3147 3146 3145 3144 3143 3142 3141 3140 3139 3138 3137 3136 3134 3133 3131 3129 3128 3126 3125 3123 3121 3119 3117 3116 3114 3113 3111 3109 3107 3105 3103 3101 3099 3097 3095 3093 3092 3090 3089 3087 3085 3084 3082 3080 3077 3076 3074 3072 3071 3069 3068 3066 3065 3064 3063 3063 3062 3062 3061 3060 3060 3061 3062 3063 3063 3064 3065 3067 3068 3069 3071 3072 3073 3075
3143 3144 3145 3145 3145 3146 3146 3146 3146 3146 3146 3145 3144 3143 3142 3142 3141 3140 3139 3138 3137 3136 3134 3133 3131 3130 3128 3126 3124 3123 3121 3119 3117 3115 3114 3112 3111 3109 3108 3106 3104 3102 3100 3098 3096 3094 3092 3090 3089 3087 3086 3084 3083 3081 3079 3077 3075 3073 3071 3070 3068 3067 3066 3064 3063 3062 3061 3060 3060 3059 3058 3057 3058 3059 3060 3060 3061 3062 3063 3064 3065 3066 3067 3069 3070
3141 3142 3143 3143 3144 3144 3144 3145 3145 3145 3144 3143 3143 3142 3141 3140 3139 3139 3138 3137 3136 3135 3133 3132 3130 3128 3127 3125 3123 3121 3120 3118 3116 3114 3113 3111 3109 3108 3106 3105 3103 3101 3099 3097 3095 3093 3091 3089 3088 3086 3084 3083 3081 3080 3078 3076 3074 3073 3071 3069 3068 3066 3065 3063 3062 3061 3060 3059 3058 3057 3056 3055 3055 3056 3056 3057 3057 3058 3059 3059 3060 3061 3063 3064 3065
3139 3140 3141 3141 3142 3142 3143 3143 3143 3143 3142 3142 3141 3140 3140 3139 3138 3138 3137 3136 3134 3133 3132 3130 3129 3127 3125 3124 3122 3120 3118 3117 3115 3114 3112 3111 3109 3107 3105 3104 3102 3100 3099 3097 3095 3093 3091 3089 3087 3085 3083 3081 3079 3078 3077 3075 3074 3072 3070 3069 3067 3066 3064 3063 3062 3060 3059 3058 3057 3056 3055 3054 3054 3054 3054 3054 3054 3055 3056 3057 3056 3057 3059 3060 3061
3137 3138 3139 3139 3140 3140 3141 3141 3141 3141 3141 3140 3140 3139 3138 3138 3137 3136 3135 3134 3133 3132 3131 3129 3127 3126 3124 3123 3121 3120 3118 3117 3115 3114 3112 3110 3108 3106 3105 3103 3101 3100 3098 3096 3094 3092 3090 3088 3086 3084 3082 3080 3078 3077 3075 3074 3073 3071 3069 3068 3066 3065 3063 3062 3061 3060 3059 3057 3056 3055 3055 3054 3053 3052 3052 3052 3052 3052 3054 3054 3053 3054 3056 3057 3058
3135 3136 3137 3138 3138 3139 3139 3139 3139 3139 3139 3139 3138 3138 3137 3136 3136 3135 3134 3133 3132 3130 3129 3127 3126 3124 3123 3122 3120 3119 3118 3116 3115 3113 3111 3109 3108 3106 3104 3103 3101 3099 3098 3096 3094 3092 3090 3088 3086 3084 3081 3079 3078 3076 3075 3073 3071 3070 3068 3067 3065 3064 3062 3061 3060 3059 3058 3057 3056 3055 3054 3054 3052 3051 3051 3051 3050 3050 3051 3051 3051 3051 3053 3054 3055
3133 3134 3135 3136 3136 3137 3137 3137 3137 3137 3137 3137 3137 3136 3136 3135 3134 3134 3133 3132 3130 3129 3128 3126 3125 3124 3122 3121 3120 3118 3117 3115 3114 3112 3111 3109 3107 3106 3104 3102 3101 3099 3097 3095 3094 3092 3090 3088 3086 3084 3082 3080 3077 3075 3074 3072 3070 3069 3067 3065 3064 3062 3061 3060 3059 3057 3057 3056 3055 3054 3053 3052 3051 3050 3049 3049 3048 3047 3048 3048 3049 3049 3050 3051 3052
3131 3132 3133 3134 3135 3135 3135 3136 3136 3136 3136 3136 3135 3135 3134 3134 3133 3132 3131 3130 3129 3128 3127 3125 3124 3123 3121 3120 3119 3117 3116 3114 3113 3111 3110 3108 3106 3105 3103 3101 3100 3098 3097 3095 3093 3091 3089 3088 3086 3084 3082 3079 3077 3075 3073 3071 3069 3068 3066 3064 3063 3061 3060 3059 3057 3056 3055 3054 3053 3052 3051 3051 3050 3048 3048 3047 3046 3046 3046 3046 3046 3047 3048 3049 3050
3129 3130 3131 3132 3133 3133 3134 3134 3134 3135 3134 3134 3134 3133 3133 3133 3132 3131 3130 3129 3128 3127 3126 3124 3123 3122 3121 3119 3118 3117 3115 3113 3112 3110 3109 3107 3106 3104 3102 3101 3099 3097 3096 3094 3092 3090 3089 3087 3085 3083 3081 3079 3077 3075 3073 3071 3069 3067 3065 3064 3062 3061 3059 3058 3057 3055 3054 3053 3052 3051 3050 3049 3049 3047 3046 3046 3045 3044 3044 3044 3044 3044 3045 3046 3047
3126 3128 3129 3130 3131 3132 3132 3133 3133 3133 3133 3133 3132 3132 3132 3131 3131 3130 3129 3128 3127 3126 3125 3124 3122 3121 3120 3118 3117 3116 3114 3112 3111 3109 3108 3106 3105 3103 3101 3100 3098 3096 3094 3093 3091 3090 3088 3086 3085 3083 3081 3079 3077 3074 3072 3070 3069 3067 3065 3064 3062 3061 3059 3058 3056 3055 3054 3052 3051 3050 3049 3048 3047 3046 3045 3044 3044 3043 3042 3042 3042 3042 3042 3042 3043
3124 3126 3127 3128 3129 3130 3131 3131 3132 3132 3131 3131 3131 3131 3131 3130 3129 3129 3128 3127 3126 3125 3124 3123 3121 3120 3119 3117 3116 3115 3113 3112 3110 3108 3107 3106 3104 3102 3101 3099 3097 3095 3094 3092 3090 3089 3087 3085 3084 3082 3080 3078 3076 3074 3072 3070 3068 3066 3065 3063 3062 3060 3058 3057 3056 3054 3053 3051 3050 3049 3048 3047 3046 3045 3044 3043 3042 3041 3041 3040 3040 3040 3040 3040 3040
3123 3124 3126 3127 3128 3129 3130 3130 3130 3130 3130 3130 3130 3130 3129 3129 3128 3127 3127 3126 3125 3124 3123 3122 3120 3119 3118 3117 3115 3114 3113 3111 3110 3108 3107 3105 3104 3102 3101 3099 3097 3095 3094 3092 3090 3089 3087 3085 3083 3081 3079 3077 3075 3073 3072 3070 3068 3066 3064 3062 3061 3059 3057 3056 3054 3053 3051 3050 3048 3047 3046 3045 3044 3043 3042 3041 3040 3040 3039 3039 3038 3038 3038 3038 3037
3122 3123 3124 3126 3127 3128 3128 3129 3129 3129 3129 3129 3129 3129 3128 3128 3127 3127 3126 3125 3124 3123 3122 3121 3120 3118 3117 3116 3115 3114 3112 3111 3110 3108 3107 3106 3104 3103 3101 3099 3098 3096 3094 3093 3090 3088 3087 3085 3083 3081 3079 3077 3075 3073 3071 3069 3068 3066 3064 3062 3060 3058 3056 3055 3053 3052 3051 3049 3048 3046 3044 3043 3042 3041 3040 3039 3039 3038 3037 3036 3036 3036 3035 3035 3035
3122 3122 3123 3124 3125 3126 3127 3127 3127 3127 3128 3128 3128 3127 3127 3127 3126 3126 3125 3124 3123 3122 3121 3120 3119 3118 3117 3117 3115 3114 3113 3112 3110 3109 3108 3106 3105 3103 3101 3100 3098 3097 3095 3093 3091 3089 3087 3085 3083 3081 3079 3077 3075 3074 3072 3070 3068 3066 3063 3061 3060 3058 3056 3055 3053 3051 3050 3049 3047 3046 3044 3042 3041 3039 3038 3037 3036 3035 3034 3034 3033 3033 3032 3032 3033
3121 3121 3122 3123 3124 3125 3125 3126 3126 3126 3126 3126 3126 3126 3126 3126 3126 3125 3124 3123 3122 3122 3121 3120 3119 3119 3118 3117 3116 3115 3114 3113 3111 3110 3108 3107 3105 3104 3102 3100 3099 3097 3095 3093 3091 3090 3088 3086 3084 3082 3079 3077 3075 3074 3072 3070 3068 3065 3063 3061 3059 3057 3055 3053 3052 3050 3049 3047 3046 3044 3043 3042 3040 3038 3037 3035 3034 3033 3032 3031 3031 3030 3030 3029 3030
3119 3120 3121 3122 3123 3124 3124 3125 3125 3125 3125 3125 3125 3125 3125 3125 3125 3124 3123 3123 3122 3121 3121 3121 3120 3119 3118 3117 3116 3116 3115 3113 3112 3111 3109 3108 3106 3105 3103 3102 3100 3098 3096 3094 3092 3091 3089 3087 3085 3082 3080 3078 3076 3074 3072 3070 3067 3065 3063 3061 3059 3056 3054 3052 3050 3049 3047 3046 3044 3042 3041 3039 3038 3036 3035 3033 3032 3031 3030 3029 3028 3028 3028 3028 3028
3118 3119 3120 3121 3122 3122 3123 3124 3124 3124 3124 3124 3124 3124 3124 3124 3124 3123 3123 3122 3122 3122 3121 3121 3120 3120 3119 3118 3117 3116 3115 3114 3113 3111 3110 3109 3107 3106 3104 3103 3100 3098 3097 3095 3094 3092 3089 3087 3085 3082 3080 3078 3076 3074 3071 3069 3067 3065 3063 3060 3058 3056 3054 3052 3050 3048 3046 3045 3043 3041 3039 3038 3036 3034 3033 3031 3030 3029 3028 3027 3026 3026 3026 3026 3026
3117 3118 3119 3120 3120 3121 3122 3123 3123 3123 3123 3123 3124 3123 3123 3123 3123 3123 3123 3122 3122 3122 3122 3121 3121 3120 3120 3119 3118 3117 3116 3115 3114 3112 3111 3109 3108 3106 3105 3103 3101 3099 3098 3096 3094 3092 3090 3088 3085 3083 3081 3079 3076 3074 3072 3069 3067 3065 3062 3060 3058 3057 3055 3053 3051 3049 3046 3044 3042 3041 3039 3037 3035 3033 3031 3029 3028 3027 3026 3026 3025 3024 3024 3024 3024
3116 3117 3118 3118 3119 3120 3121 3121 3122 3122 3122 3122 3123 3122 3122 3122 3122 3123 3123 3122 3122 3122 3122 3122 3121 3121 3121 3120 3119 3118 3117 3116 3114 3113 3112 3110 3108 3107 3105 3103 3102 3100 3099 3097 3095 3093 3090 3088 3086 3084 3082 3080 3077 3075 3073 3071 3068 3066 3063 3062 3060 3058 3056 3054 3052 3049 3047 3045 3043 3040 3038 3036 3034 3032 3030 3028 3027 3025 3025 3024 3023 3022 3022 3022 3022
3114 3115 3116 3117 3118 3119 3120 3120 3120 3121 3121 3121 3122 3122 3122 3122 3122 3123 3123 3122 3122 3122 3122 3122 3122 3121 3121 3120 3119 3118 3117 3116 3115 3113 3112 3110 3109 3107 3106 3104 3103 3101 3100 3098 3096 3093 3091 3089 3087 3085 3083 3081 3078 3076 3074 3072 3069 3067 3065 3063 3062 3060 3057 3055 3052 3050 3048 3045 3042 3040 3038 3036 3034 3032 3030 3028 3026 3025 3023 3022 3021 3020 3020 3020 3020
3113 3114 3115 3116 3117 3118 3119 3119 3119 3120 3120 3121 3121 3121 3121 3122 3123 3123 3123 3122 3122 3122 3123 3123 3122 3122 3121 3120 3119 3118 3117 3116 3115 3114 3112 3111 3109 3108 3106 3105 3103 3102 3100 3098 3096 3093 3091 3089 3088 3086 3084 3082 3080 3078 3076 3073 3071 3069 3067 3065 3063 3060 3058 3055 3053 3051 3048 3045 3043 3040 3038 3036 3034 3032 3031 3030 3028 3026 3024 3022 3021 3020 3019 3018 3018
3112 3113 3114 3115 3116 3117 3118 3118 3118 3119 3119 3120 3120 3121 3121 3122 3122 3123 3122 3122 3122 3122 3123 3123 3122 3122 3121 3120 3119 3118 3117 3116 3115 3114 3113 3111 3110 3108 3107 3105 3104 3102 3100 3098 3096 3094 3092 3091 3089 3087 3085 3083 3081 3079 3077 3074 3072 3070 3068 3066 3063 3061 3058 3056 3054 3051 3049 3046 3044 3042 3040 3038 3036 3035 3033 3032 3029 3027 3025 3023 3022 3020 3019 3018 3017
3111 3113 3114 3115 3116 3116 3117 3117 3118 3118 3119 3120 3120 3121 3121 3122 3122 3122 3122 3122 3122 3123 3123 3123 3122 3122 3121 3120 3119 3118 3117 3116 3115 3114 3113 3111 3110 3108 3107 3105 3104 3102 3101 3099 3097 3095 3093 3091 3090 3088 3086 3084 3082 3080 3078 3076 3073 3071 3069 3066 3064 3061 3059 3056 3054 3052 3050 3048 3046 3044 3042 3041 3039 3037 3035 3033 3031 3028 3026 3025 3023 3022 3020 3019 3017
3110 3112 3113 3114 3114 3115 3116 3116 3117 3118 3118 3119 3120 3121 3121 3122 3122 3122 3122 3122 3122 3122 3122 3122 3122 3122 3121 3120 3119 3118 3117 3116 3116 3114 3113 3112 3110 3109 3107 3106 3104 3103 3101 3099 3097 3095 3094 3092 3091 3089 3088 3086 3084 3082 3079 3077 3074 3072 3069 3067 3065 3063 3061 3059 3057 3055 3052 3050 3048 3047 3045 3043 3041 3039 3037 3035 3032 3030 3028 3027 3025 3024 3022 3021 3019
3109 3111 3112 3113 3113 3114 3115 3115 3116 3117 3118 3119 3120 3120 3121 3121 3121 3121 3122 3122 3122 3122 3122 3122 3121 3121 3120 3120 3119 3118 3118 3117 3116 3115 3113 3112 3111 3109 3108 3106 3105 3103 3101 3099 3097 3096 3095 3094 3093 3091 3089 3087 3085 3083 3080 3078 3075 3073 3071 3069 3067 3065 3063 3061 3059 3056 3054 3052 3051 3049 3047 3045 3043 3041 3039 3037 3035 3033 3031 3030 3028 3027 3025 3024 3021
3108 3109 3110 3111 3112 3113 3114 3115 3116 3117 3118 3118 3119 3120 3121 3121 3121 3121 3121 3122 3122 3122 3121 3121 3121 3120 3120 3119 3119 3118 3118 3117 3116 3114 3113 3112 3111 3109 3108 3106 3105 3103 3102 3100 3099 3098 3097 3096 3094 3092 3090 3088 3086 3083 3081 3079 3077 3074 3072 3070 3068 3066 3064 3062 3059 3057 3055 3054 3052 3050 3048 3046 3044 3042 3041 3039 3037 3035 3034 3033 3031 3030 3029 3027 3024
3107 3108 3109 3110 3111 3112 3113 3114 3115 3116 3117 3118 3119 3120 3120 3120 3121 3121 3121 3121 3121 3121 3121 3121 3120 3120 3120 3119 3119 3118 3117 3116 3115 3114 3113 3112 3110 3109 3108 3106 3105 3104 3102 3101 3100 3100 3098 3097 3095 3093 3091 3089 3086 3084 3082 3080 3078 3076 3073 3071 3069 3067 3065 3063 3061 3059 3057 3055 3053 3052 3050 3048 3046 3044 3042 3041 3039 3038 3037 3036 3035 3033 3032 3030 3028
3106 3107 3108 3109 3110 3111 3112 3114 3115 3116 3117 3118 3119 3119 3120 3120 3120 3121 3121 3121 3121 3121 3120 3120 3120 3119 3119 3119 3118 3118 3117 3116 3115 3114 3113 3112 3110 3109 3108 3107 3105 3104 3103 3102 3101 3100 3098 3097 3095 3093 3091 3089 3087 3085 3083 3081 3079 3077 3075 3073 3071 3068 3066 3064 3062 3060 3059 3057 3055 3053 3051 3049 3047 3045 3044 3043 3041 3040 3039 3038 3037 3036 3035 3034 3032
3105 3106 3107 3108 3109 3111 3112 3113 3114 3115 3116 3117 3118 3119 3119 3120 3120 3120 3121 3121 3120 3120 3120 3120 3119 3119 3119 3118 3118 3117 3116 3116 3115 3114 3113 3112 3111 3109 3108 3107 3106 3105 3103 3102 3101 3100 3098 3097 3095 3093 3091 3089 3087 3086 3084 3082 3080 3078 3076 3074 3071 3069 3067 3065 3063 3062 3060 3058 3056 3054 3053 3051 3049 3047 3046 3044 3043 3042 3041 3040 3039 3038 3038 3037 3036
3103 3105 3106 3107 3109 3110 3111 3113 3114 3115 3116 3117 3118 3118 3119 3119 3120 3120 3120 3120 3120 3120 3119 3119 3119 3118 3118 3118 3117 3117 3116 3115 3115 3114 3113 3112 3111 3110 3108 3107 3106 3105 3104 3103 3101 3100 3098 3097 3095 3093 3092 3090 3088 3086 3084 3082 3080 3078 3076 3074 3072 3070 3069 3067 3065 3063 3061 3059 3058 3056 3054 3052 3051 3049 3047 3046 3044 3043 3043 3042 3041 3040 3040 3039 3038
3102 3103 3105 3106 3108 3110 3111 3112 3113 3114 3115 3116 3117 3118 3118 3119 3119 3120 3120 3120 3120 3119 3119 3119 3118 3118 3118 3117 3117 3116 3116 3115 3114 3114 3113 3112 3111 3109 3108 3107 3106 3105 3104 3103 3102 3100 3099 3097 3095 3094 3092 3090 3089 3087 3085 3083 3081 3080 3078 3076 3074 3072 3070 3068 3067 3065 3063 3061 3059 3057 3055 3054 3052 3050 3049 3047 3046 3045 3044 3043 3042 3042 3041 3040 3040
3101 3103 3104 3106 3107 3109 3110 3111 3112 3114 3114 3115 3116 3117 3118 3118 3119 3119 3119 3119 3119 3118 3118 3118 3118 3118 3117 3117 3117 3116 3116 3115 3114 3113 3112 3111 3110 3109 3108 3107 3107 3106 3104 3103 3102 3100 3099 3097 3095 3094 3092 3091 3089 3087 3086 3084 3082 3081 3079 3077 3075 3073 3072 3070 3068 3066 3064 3062 3060 3059 3057 3055 3053 3052 3050 3049 3048 3046 3045 3044 3044 3043 3042 3042 3041
3101 3102 3104 3105 3107 3108 3110 3111 3112 3113 3114 3115 3115 3116 3117 3117 3118 3118 3118 3118 3118 3118 3118 3118 3117 3117 3117 3117 3117 3116 3115 3115 3114 3113 3112 3111 3110 3109 3109 3108 3107 3106 3104 3103 3102 3100 3099 3097 3096 3094 3093 3091 3090 3088 3086 3085 3083 3081 3080 3078 3076 3074 3072 3071 3069 3067 3065 3064 3062 3060 3058 3057 3055 3053 3052 3050 3049 3048 3047 3046 3045 3044 3044 3043 3043
3099 3101 3103 3105 3106 3108 3109 3110 3111 3112 3113 3114 3114 3115 3116 3116 3117 3117 3117 3117 3117 3117 3117 3117 3117 3117 3117 3117 3116 3116 3115 3114 3114 3113 3112 3111 3110 3109 3109 3108 3107 3106 3104 3103 3102 3101 3099 3098 3096 3095 3093 3092 3090 3089 3087 3085 3084 3082 3080 3078 3077 3075 3073 3071 3070 3068 3067 3065 3063 3062 3060 3058 3057 3055 3053 3052 3051 3049 3048 3047 3046 3045 3045 3044 3044
3098 3100 3102 3104 3105 3107 3108 3109 3110 3111 3112 3113 3114 3114 3115 3115 3115 3116 3116 3116 3116 3116 3116 3116 3116 3116 3116 3116 3116 3115 3115 3114 3113 3112 3112 3111 3110 3109 3109 3108 3107 3106 3104 3103 3102 3101 3099 3098 3097 3095 3094 3092 3091 3089 3088 3086 3084 3083 3081 3079 3078 3076 3074 3073 3071 3069 3068 3066 3064 3062 3061 3059 3058 3056 3055 3054 3052 3051 3050 3048 3047 3047 3046 3045 3045
3098 3099 3101 3103 3104 3106 3107 3108 3109 3110 3111 3112 3113 3113 3114 3114 3114 3114 3115 3115 3115 3115 3115 3115 3116 3116 3116 3115 3115 3115 3114 3114 3113 3112 3111 3110 3110 3109 3108 3107 3106 3105 3104 3103 3102 3101 3100 3098 3097 3096 3094 3093 3091 3090 3088 3086 3085 3083 3082 3080 3079 3077 3075 3073 3072 3070 3068 3067 3065 3064 3062 3060 3059 3058 3056 3055 3054 3052 3051 3050 3049 3048 3047 3046 3046
3097 3099 3100 3102 3103 3104 3106 3107 3108 3109 3110 3111 3112 3112 3113 3113 3113 3113 3114 3114 3114 3114 3114 3114 3115 3115 3114 3114 3114 3114 3113 3113 3112 3112 3111 3110 3109 3109 3108 3107 3106 3105 3104 3103 3102 3101 3099 3098 3097 3096 3094 3093 3091 3090 3088 3087 3085 3084 3082 3080 3079 3077 3076 3074 3072 3071 3069 3068 3066 3064 3063 3061 3060 3059 3057 3056 3055 3053 3052 3051 3050 3049 3048 3047 3047
3096 3098 3099 3101 3102 3103 3104 3106 3107 3108 3109 3110 3110 3111 3111 3112 3112 3112 3112 3113 3113 3113 3113 3113 3113 3113 3113 3113 3113 3113 3112 3112 3111 3111 3110 3110 3109 3108 3107 3106 3106 3105 3104 3103 3102 3100 3099 3098 3097 3095 3094 3093 3091 3090 3089 3087 3085 3084 3082 3081 3079 3078 3076 3075 3073 3071 3070 3068 3067 3065 3064 3062 3061 3059 3058 3056 3055 3054 3053 3052 3051 3050 3049 3048 3047
3095 3096 3098 3099 3101 3102 3103 3104 3106 3107 3108 3108 3109 3109 3110 3110 3111 3111 3111 3111 3112 3112 3112 3112 3112 3112 3112 3112 3112 3111 3111 3111 3110 3110 3109 3109 3108 3107 3107 3106 3105 3104 3103 3102 3101 3100 3099 3098 3096 3095 3094 3093 3091 3090 3088 3087 3086 3084 3083 3081 3080 3078 3077 3075 3074 3072 3070 3069 3067 3066 3064 3063 3061 3060 3058 3057 3056 3054 3053 3052 3051 3050 3049 3049 3048
3093 3095 3097 3098 3099 3101 3102 3103 3104 3105 3106 3107 3108 3108 3108 3109 3109 3110 3110 3110 3110 3111 3111 3111 3111 3111 3111 3110 3110 3110 3110 3109 3109 3109 3108 3108 3107 3106 3106 3105 3104 3103 3102 3101 3100 3099 3098 3097 3096 3095 3094 3092 3091 3090 3088 3087 3085 3084 3083 3081 3080 3078 3077 3076 3074 3072 3071 3069 3068 3066 3065 3063 3062 3060 3059 3057 3056 3055 3054 3052 3051 3050 3049 3048 3048
3092 3094 3095 3097 3098 3099 3101 3102 3103 3104 3105 3106 3106 3107 3107 3107 3108 3108 3109 3109 3109 3109 3109 3109 3109 3109 3109 3109 3109 3109 3108 3108 3107 3107 3107 3106 3106 3105 3104 3104 3103 3102 3101 3100 3099 3098 3097 3096 3095 3094 3093 3092 3091 3089 3088 3087 3085 3084 3082 3081 3080 3079 3077 3076 3074 3073 3071 3070 3068 3067 3065 3064 3062 3061 3059 3058 3056 3055 3054 3053 3051 3050 3049 3048 3047
3091 3093 3094 3096 3097 3098 3099 3100 3102 3103 3103 3104 3105 3105 3106 3106 3107 3107 3107 3107 3108 3108 3108 3108 3108 3108 3108 3107 3107 3107 3106 3106 3106 3105 3105 3104 3104 3103 3103 3102 3101 3101 3100 3099 3098 3097 3096 3095 3094 3093 3092 3091 3090 3088 3087 3086 3085 3083 3082 3081 3079 3078 3077 3075 3074 3073 3071 3070 3068 3067 3065 3064 3062 3061 3059 3058 3056 3055 3054 3052 3051 3050 3049 3048 3047
3089 3091 3093 3094 3095 3096 3098 3099 3100 3101 3102 3102 3103 3104 3104 3105 3105 3106 3106 3106 3106 3106 3106 3106 3106 3106 3106 3106 3105 3105 3105 3104 3104 3103 3103 3102 3102 3101 3101 3100 3099 3099 3098 3097 3097 3096 3095 3094 3093 3092 3091 3090 3089 3087 3086 3085 3084 3082 3081 3080 3079 3077 3076 3075 3073 3072 3070 3069 3068 3066 3065 3063 3062 3061 3059 3057 3056 3055 3053 3052 3051 3049 3048 3047 3046
3088 3090 3091 3092 3093 3095 3096 3097 3098 3099 3100 3101 3101 3102 3102 3103 3103 3104 3104 3104 3104 3105 3105 3105 3104 3104 3104 3104 3103 3103 3103 3102 3102 3101 3101 3100 3100 3099 3099 3098 3097 3097 3096 3095 3095 3094 3093 3092 3091 3090 3089 3088 3087 3086 3085 3084 3082 3081 3080 3079 3077 3076 3075 3074 3072 3071 3070 3068 3067 3065 3064 3063 3061 3060 3059 3057 3056 3054 3053 3051 3050 3049 3047 3046 3045
3087 3088 3089 3091 3092 3093 3094 3095 3096 3097 3098 3098 3099 3100 3100 3101 3101 3102 3102 3102 3102 3102 3102 3102 3102 3102 3102 3102 3101 3101 3100 3100 3099 3099 3098 3098 3097 3097 3096 3096 3095 3094 3094 3093 3092 3091 3091 3090 3089 3088 3087 3086 3085 3084 3083 3082 3081 3079 3078 3077 3076 3075 3073 3072 3071 3070 3068 3067 3065 3064 3063 3062 3060 3059 3058 3056 3055 3053 3052 3051 3049 3048 3046 3045 3044
3085 3086 3088 3089 3090 3091 3092 3093 3094 3095 3096 3096 3097 3098 3098 3099 3099 3099 3099 3100 3100 3100 3100 3100 3100 3100 3099 3099 3099 3098 3098 3097 3097 3096 3096 3095 3095 3094 3093 3093 3092 3092 3091 3090 3090 3089 3088 3087 3086 3086 3085 3084 3083 3082 3081 3080 3079 3078 3076 3075 3074 3073 3072 3070 3069 3068 3067 3065 3064 3063 3061 3060 3059 3057 3056 3055 3053 3052 3051 3049 3048 3047 3045 3044 3042
3083 3084 3086 3087 3088 3089 3090 3091 3092 3093 3093 3094 3095 3095 3096 3096 3096 3097 3097 3097 3097 3097 3097 3097 3097 3097 3096 3096 3096 3095 3095 3094 3094 3093 3093 3092 3091 3091 3090 3090 3089 3088 3088 3087 3086 3086 3085 3084 3084 3083 3082 3081 3080 3079 3078 3077 3076 3075 3074 3073 3072 3071 3070 3068 3067 3066 3065 3064 3062 3061 3060 3058 3057 3056 3054 3053 3052 3050 3049 3048 3046 3045 3044 3042 3041